Location: Henham
(51.9333°N, 0.2500°E)
Time: 14:51:54
(UTC+00:00)

Cosmos 1844 Rocket - Pass Details

Date: 23 October 2019
Orbit: 826 x 843 km, 71.0° (Epoch: 22 November)

Event Time Altitude Azimuth Distance (km) Brightness Sun altitude
Rises 17:32:27 0° 226° (SW) 3,387 6.9 -7.4°
Reaches altitude 10° 17:34:58 10° 232° (SW) 2,454 6.2 -7.7°
Maximum altitude 17:40:27 51° 308° (NW) 1,046 3.5 -8.6°
Drops below altitude 10° 17:45:56 10° 24° (NNE) 2,457 4.8 -9.4°
Sets 17:48:28 0° 30° (NNE) 3,392 5.5 -9.8°
